Regional Weather Roundup
Issued by NWS Newport/Morehead, NC

Home | Current Version | Previous Version | Text Only | Print | Product List | Glossary On
Versions: 1 2 3 4 5 6 7 8 9 10 11 12 13 14 15 16 17 18 19 20 21 22 23 24 25 26 27 28 29 30 31 32 33 34 35 36 37 38 39 40 41 42 43 44 45 46 47 48 49 50
000
ASUS42 KMHX 051524
RWRMHX
WEATHER ROUNDUP FOR EASTERN NORTH CAROLINA
NATIONAL WEATHER SERVICE NEWPORT/MOREHEAD CITY NC
1100 AM EDT TUE MAY 05 2015

NOTE: "FAIR" INDICATES FEW OR NO CLOUDS BELOW 12,000 FEET
WITH NO SIGNIFICANT WEATHER AND/OR OBSTRUCTIONS TO VISIBILITY

NCZ015>017-031-032-045>047-102-103-051600-
NORTH COAST

CITY           SKY/WX    TMP DP  RH WIND       PRES   REMARKS
EDENTON        MOSUNNY   73  55  53 W6        30.37S
ELIZABETH CITY PTSUNNY   75  53  46 SW12      30.37R
KITTY HAWK     SUNNY     76  50  39 SW8       30.36S
MANTEO         SUNNY     74  51  44 SW8       30.37S

$$

NCZ045>047-081-094-103-104-051600-
CENTRAL COAST

CITY           SKY/WX    TMP DP  RH WIND       PRES   REMARKS
FRISCO         SUNNY     70  52  52 SW6       30.39R
SWANQUARTER      N/A     77 N/A N/A SW6       30.33F

$$

NCZ095-097-098-100-101-051600-
SOUTHERN COAST

CITY           SKY/WX    TMP DP  RH WIND       PRES   REMARKS
BEAUFORT       SUNNY     74  48  39 VRB5      30.38R
CEDAR ISLAND     N/A     77 N/A N/A SE5G12    30.41S
JACKSONVILLE   SUNNY     76  49  38 VRB7      30.37S
PINEY ISLAND   SUNNY    N/A N/A N/A VRB7      30.38R
WILMINGTON     SUNNY     75  51  43 SE9       30.37R


$$

NCZ011>013-027>030-043-044-078>080-089-090>093-098-051600-
COASTAL PLAIN

CITY           SKY/WX    TMP DP  RH WIND       PRES   REMARKS
AHOSKIE        SUNNY     74  52  45 S8        30.36S
CLINTON        SUNNY     74  54  48 S3        30.38S
ELIZABETHTOWN  SUNNY     75  50  41 CALM      30.36F
GOLDSBORO      SUNNY     75  50  41 CALM      30.35S
GREENVILLE     SUNNY     75  52  43 SW6       30.37S
HAVELOCK       SUNNY     76  46  34 VRB6      30.38S
KENANSVILLE    SUNNY     74  47  38 S5        30.38F
KINSTON        SUNNY     75  48  38 SW6       30.38S
NEW BERN       SUNNY     76  48  37 CALM      30.39R
RICHLANDS      SUNNY     77  50  38 S6        30.37F
ROCKY MOUNT    SUNNY     75  53  46 S12       30.37S
WASHINGTON     SUNNY     75  50  41 S6        30.37F
WHITEVILLE     SUNNY     74  49  39 CALM      30.36S

$$

AMZ130-135-150-152-154-156-158-170-250-252-270-ANZ085-086-088-633-658-670-051600-
MARINE OBSERVATIONS

STATION/POSITION TIME  TEMP    WIND        PRES    WAVE   SWELL
                       AIR SEA DIR/SP/G            HT/PER HT/PER
                 (UTC) (F)     (DEG/KT/KT) (MB)    (FT/S) (FT/S)
CHESAPEAKE LIGHT 1500   65     210/ 18/ 19 1027.4
64 E VA BEACH    1450   61 60  220/ 12/ 12 1027.9    2/11   2/11
DUCK             1500   71 53  230/ 11/ 14 1027.4
2 E DUCK         1411      58                N/A     2/12   2/12
OREGON INLET     1500   69 68  180/  9/ 10 1028.7
13E OREGON INLT  1500      62                N/A     2/11   2/11
HATTERAS CG      1406   73 65  210/  6/  8 1028.3
DIAMOND BUOY     1450   73 77  170/ 10/ 12 1029.0    3/12   2/12
CAPE LOOKOUT     1500   71     110/  2/  2 1028.4
BEAUFORT LAB     1406   72 66  190/  5/  7 1027.7
27 SE WRIGHTSVLE 1500   69 71  120/  8/ 12   N/A
5 SE WRIGHTSVLE  1408   71 68  110/  6/  8 1028.1
225 S CAPE HAT   1450   69 70  100/ 17/ 21 1027.1    5/ 5   2/11
41 SE CHARLESTON 1450   72 73   50/ 12/ 14 1026.4    3/ 7   3/ 7

$$


USA.gov is the U.S. government's official web portal to all federal, state and local government web resources and services.